TOM63J EGFF-LGKR

Flight info

Callsign TOM63J
Flight time 3h 1m
Altitude 37000
Route BCN P4 HAWFA L607 KONAN DCT KOK DCT SISGA DCT RITAX DCT KRH DCT UTABA DCT BEMKI DCT ELMEM DCT DIRAB DCT NIVAS DCT PEVAL DCT SOMIG DCT AIOSA DCT ENOXA DCT KAPPO DCT TIGRA
Aircraft B738/M-SDE2E3FGHIRWXY/LB1

Departure

Time 2026-05-07 14:45
Airport Cardiff International Airport (EGFF)

Arrival

Time 2026-05-07 17:47
Airport Corfu Ioannis Kapodistrias International Airport (LGKR)
Time Latitude Longitude Altitude Speed Heading
2026-05-07 14:16 51.39732 -3.33751 221 ft 0 kts 354°
2026-05-07 14:37 51.39714 -3.33747 223 ft 4 kts 344°
2026-05-07 14:38 51.39689 -3.33732 224 ft 4 kts 333°
2026-05-07 14:38 51.39676 -3.33721 222 ft 1 kts 332°
2026-05-07 14:38 51.39674 -3.33720 222 ft 0 kts 332°
2026-05-07 14:40 51.39676 -3.33723 222 ft 2 kts 320°
2026-05-07 14:40 51.39677 -3.33763 222 ft 5 kts 269°
2026-05-07 14:40 51.39691 -3.33835 221 ft 9 kts 293°
2026-05-07 14:40 51.39721 -3.33937 221 ft 12 kts 297°
2026-05-07 14:41 51.39769 -3.34087 221 ft 18 kts 300°
2026-05-07 14:41 51.39831 -3.34282 222 ft 20 kts 298°
2026-05-07 14:41 51.39892 -3.34477 219 ft 19 kts 295°
2026-05-07 14:41 51.39952 -3.34665 217 ft 19 kts 296°
2026-05-07 14:42 51.40009 -3.34847 221 ft 18 kts 297°
2026-05-07 14:42 51.40064 -3.35024 217 ft 17 kts 297°
2026-05-07 14:42 51.40117 -3.35191 217 ft 17 kts 296°
2026-05-07 14:42 51.40156 -3.35361 213 ft 16 kts 270°
2026-05-07 14:43 51.40101 -3.35504 217 ft 8 kts 226°
2026-05-07 14:43 51.40090 -3.35517 215 ft 2 kts 211°
2026-05-07 14:43 51.40078 -3.35525 214 ft 2 kts 199°
2026-05-07 14:43 51.40067 -3.35531 217 ft 2 kts 198°
2026-05-07 14:44 51.40056 -3.35536 215 ft 2 kts 193°
2026-05-07 14:44 51.40045 -3.35528 216 ft 2 kts 144°
2026-05-07 14:44 51.40038 -3.35513 216 ft 2 kts 127°
2026-05-07 14:44 51.40000 -3.35405 214 ft 37 kts 118°
2026-05-07 14:45 51.39760 -3.34639 224 ft 116 kts 116°
2026-05-07 14:45 51.39284 -3.33152 239 ft 182 kts 112°
2026-05-07 14:45 51.38753 -3.31111 746 ft 207 kts 114°
2026-05-07 14:45 51.38125 -3.29022 1745 ft 207 kts 121°
2026-05-07 14:46 51.37412 -3.26884 2216 ft 226 kts 119°
2026-05-07 14:46 51.36698 -3.24600 2680 ft 233 kts 118°
2026-05-07 14:46 51.35980 -3.22253 3239 ft 235 kts 118°
2026-05-07 14:46 51.35620 -3.19735 3780 ft 243 kts 86°
2026-05-07 14:47 51.36228 -3.17202 4346 ft 248 kts 63°
2026-05-07 14:47 51.37062 -3.14768 4906 ft 250 kts 63°
2026-05-07 14:47 51.37901 -3.12303 5439 ft 253 kts 63°
2026-05-07 14:47 51.38741 -3.09807 5998 ft 258 kts 64°
2026-05-07 14:48 51.39613 -3.07181 6314 ft 275 kts 64°
2026-05-07 14:48 51.40517 -3.04436 6986 ft 280 kts 64°
2026-05-07 14:48 51.41422 -3.01669 7725 ft 282 kts 64°
2026-05-07 14:48 51.42334 -2.98866 8439 ft 286 kts 64°
2026-05-07 14:49 51.43242 -2.96060 9158 ft 288 kts 64°
2026-05-07 14:49 51.44168 -2.93191 9864 ft 292 kts 64°
2026-05-07 14:49 51.45111 -2.90263 10388 ft 302 kts 64°
2026-05-07 14:49 51.46106 -2.87161 10535 ft 324 kts 64°
2026-05-07 14:50 51.47170 -2.83840 10707 ft 344 kts 64°
2026-05-07 14:50 51.48285 -2.80359 11076 ft 357 kts 64°
2026-05-07 14:50 51.49432 -2.76780 11625 ft 363 kts 64°
2026-05-07 14:50 51.50589 -2.73166 12314 ft 365 kts 64°
2026-05-07 14:51 51.51736 -2.69568 12919 ft 370 kts 64°
2026-05-07 14:51 51.52786 -2.65784 13509 ft 373 kts 74°
2026-05-07 14:51 51.53307 -2.61706 14108 ft 373 kts 87°
2026-05-07 14:51 51.53285 -2.57541 14654 ft 374 kts 98°
2026-05-07 14:52 51.52970 -2.53373 15224 ft 377 kts 99°
2026-05-07 14:52 51.52649 -2.49165 15749 ft 382 kts 98°
2026-05-07 14:52 51.52347 -2.44913 16276 ft 386 kts 98°
2026-05-07 14:52 51.52054 -2.40610 16840 ft 389 kts 98°
2026-05-07 14:53 51.51768 -2.36327 17375 ft 392 kts 98°
2026-05-07 14:53 51.51476 -2.31956 17918 ft 396 kts 98°
2026-05-07 14:53 51.51179 -2.27538 18419 ft 400 kts 98°
2026-05-07 14:53 51.50878 -2.23076 18875 ft 403 kts 98°
2026-05-07 14:54 51.50571 -2.18588 19346 ft 406 kts 98°
2026-05-07 14:54 51.50260 -2.14077 19814 ft 409 kts 98°
2026-05-07 14:54 51.49944 -2.09529 20280 ft 412 kts 98°
2026-05-07 14:54 51.49624 -2.04945 20740 ft 414 kts 98°
2026-05-07 14:55 51.49301 -2.00339 21184 ft 417 kts 98°
2026-05-07 14:55 51.48975 -1.95758 21626 ft 420 kts 98°
2026-05-07 14:55 51.48634 -1.91088 22076 ft 423 kts 98°
2026-05-07 14:55 51.48287 -1.86378 22485 ft 427 kts 98°
2026-05-07 14:56 51.47936 -1.81631 22901 ft 430 kts 98°
2026-05-07 14:56 51.47583 -1.76860 23330 ft 432 kts 98°
2026-05-07 14:56 51.47226 -1.72059 23730 ft 435 kts 98°
2026-05-07 14:56 51.46855 -1.67224 24082 ft 437 kts 99°
2026-05-07 14:57 51.46294 -1.62430 24430 ft 439 kts 104°
2026-05-07 14:57 51.45608 -1.57719 24764 ft 441 kts 104°
2026-05-07 14:57 51.45106 -1.53106 25066 ft 444 kts 99°
2026-05-07 14:57 51.44955 -1.51282 25191 ft 445 kts 98°
2026-05-07 14:58 51.44593 -1.46342 25521 ft 447 kts 97°
2026-05-07 14:58 51.44256 -1.41372 25838 ft 449 kts 97°
2026-05-07 14:58 51.43916 -1.36383 26149 ft 451 kts 97°
2026-05-07 14:58 51.43563 -1.31376 26458 ft 453 kts 98°
2026-05-07 14:59 51.43193 -1.26345 26774 ft 455 kts 98°
2026-05-07 14:59 51.42814 -1.21362 27059 ft 457 kts 98°
2026-05-07 14:59 51.42421 -1.16305 27351 ft 459 kts 98°
2026-05-07 14:59 51.42020 -1.11217 27638 ft 461 kts 98°
2026-05-07 15:00 51.41613 -1.06100 27919 ft 463 kts 98°
2026-05-07 15:00 51.41240 -1.01438 28149 ft 465 kts 98°
2026-05-07 15:00 51.40826 -0.96296 28425 ft 467 kts 98°
2026-05-07 15:00 51.40414 -0.91198 28711 ft 468 kts 98°
2026-05-07 15:01 51.39995 -0.86029 29003 ft 469 kts 98°
2026-05-07 15:01 51.39570 -0.80832 29263 ft 471 kts 99°
2026-05-07 15:01 51.39144 -0.75636 29577 ft 471 kts 99°
2026-05-07 15:01 51.38716 -0.70440 29969 ft 470 kts 99°
2026-05-07 15:02 51.38381 -0.65240 30344 ft 466 kts 96°
2026-05-07 15:02 51.38107 -0.60124 30943 ft 459 kts 98°
2026-05-07 15:02 51.37702 -0.55059 31161 ft 460 kts 100°
2026-05-07 15:02 51.37216 -0.50051 31300 ft 463 kts 101°
2026-05-07 15:03 51.36702 -0.44949 31455 ft 466 kts 101°
2026-05-07 15:03 51.36198 -0.39819 31665 ft 467 kts 100°
2026-05-07 15:03 51.35715 -0.34683 31970 ft 466 kts 100°
2026-05-07 15:03 51.35251 -0.29562 32309 ft 464 kts 99°
2026-05-07 15:04 51.34800 -0.24454 32600 ft 464 kts 99°
2026-05-07 15:04 51.34354 -0.19345 32847 ft 464 kts 99°
2026-05-07 15:04 51.33909 -0.14236 33124 ft 464 kts 99°
2026-05-07 15:04 51.33468 -0.09194 33348 ft 464 kts 99°
2026-05-07 15:05 51.33019 -0.04086 33511 ft 466 kts 99°
2026-05-07 15:05 51.32564 0.01049 33644 ft 467 kts 99°
2026-05-07 15:05 51.32106 0.06185 33897 ft 466 kts 100°
2026-05-07 15:05 51.31648 0.11296 34156 ft 464 kts 100°
2026-05-07 15:06 51.31189 0.16392 34349 ft 463 kts 100°
2026-05-07 15:06 51.30727 0.21495 34498 ft 464 kts 100°
2026-05-07 15:06 51.30262 0.26588 34648 ft 464 kts 100°
2026-05-07 15:06 51.29802 0.31612 34843 ft 463 kts 100°
2026-05-07 15:07 51.28858 0.41847 34871 ft 466 kts 100°
2026-05-07 15:07 51.27909 0.52039 34868 ft 462 kts 100°
2026-05-07 15:08 51.26958 0.62162 34898 ft 459 kts 100°
2026-05-07 15:08 51.26004 0.72212 34941 ft 457 kts 100°
2026-05-07 15:09 51.25049 0.82180 34989 ft 456 kts 100°
2026-05-07 15:09 51.24082 0.92178 35035 ft 457 kts 101°
2026-05-07 15:10 51.23103 1.02209 35070 ft 458 kts 101°
2026-05-07 15:10 51.22114 1.12252 35079 ft 460 kts 101°
2026-05-07 15:11 51.21118 1.22279 35078 ft 462 kts 101°
2026-05-07 15:11 51.20103 1.32397 35083 ft 463 kts 101°
2026-05-07 15:12 51.19074 1.42572 35071 ft 465 kts 101°
2026-05-07 15:12 51.18040 1.52702 35084 ft 465 kts 101°
2026-05-07 15:13 51.16992 1.62881 35073 ft 466 kts 101°
2026-05-07 15:13 51.15936 1.73056 35073 ft 465 kts 101°
2026-05-07 15:14 51.14881 1.83137 35073 ft 464 kts 101°
2026-05-07 15:14 51.13889 1.92553 35067 ft 463 kts 101°
2026-05-07 15:15 51.12870 2.02666 35071 ft 463 kts 98°
2026-05-07 15:15 51.12304 2.12854 35077 ft 462 kts 95°
2026-05-07 15:16 51.11840 2.22966 35077 ft 461 kts 96°
2026-05-07 15:16 51.11312 2.33117 35069 ft 460 kts 96°
2026-05-07 15:17 51.10749 2.43241 35076 ft 459 kts 96°
2026-05-07 15:17 51.10178 2.53356 35063 ft 459 kts 96°
2026-05-07 15:18 51.09443 2.63357 35066 ft 458 kts 105°
2026-05-07 15:18 51.07155 2.72711 35082 ft 454 kts 120°
2026-05-07 15:19 51.04147 2.81541 35067 ft 455 kts 120°
2026-05-07 15:19 51.01137 2.90382 35078 ft 456 kts 120°
2026-05-07 15:20 50.98167 2.99216 35068 ft 457 kts 120°
2026-05-07 15:20 50.95738 3.06463 35073 ft 457 kts 120°
2026-05-07 15:21 50.92747 3.15372 35078 ft 458 kts 120°
2026-05-07 15:21 50.89744 3.24279 35065 ft 459 kts 120°
2026-05-07 15:22 50.86750 3.33125 35058 ft 459 kts 120°
2026-05-07 15:22 50.83732 3.42012 35075 ft 459 kts 120°
2026-05-07 15:23 50.80701 3.50905 35067 ft 459 kts 120°
2026-05-07 15:23 50.77665 3.59780 35074 ft 459 kts 120°
2026-05-07 15:24 50.74621 3.68649 35075 ft 459 kts 120°
2026-05-07 15:24 50.71589 3.77453 35073 ft 460 kts 120°
2026-05-07 15:25 50.68529 3.86311 35072 ft 460 kts 121°
2026-05-07 15:25 50.65467 3.95149 35073 ft 459 kts 121°
2026-05-07 15:26 50.62393 4.03984 35071 ft 460 kts 121°
2026-05-07 15:26 50.59532 4.12908 35073 ft 460 kts 117°
2026-05-07 15:27 50.56839 4.22042 35061 ft 460 kts 116°
2026-05-07 15:27 50.54144 4.31174 35074 ft 460 kts 117°
2026-05-07 15:28 50.51420 4.40267 35076 ft 460 kts 117°
2026-05-07 15:28 50.48695 4.49282 35079 ft 460 kts 117°
2026-05-07 15:29 50.45940 4.58350 35079 ft 461 kts 117°
2026-05-07 15:29 50.43176 4.67417 35074 ft 461 kts 117°
2026-05-07 15:30 50.40404 4.76482 35066 ft 461 kts 117°
2026-05-07 15:30 50.37643 4.85475 35066 ft 461 kts 117°
2026-05-07 15:31 50.34859 4.94513 35073 ft 461 kts 117°
2026-05-07 15:31 50.32067 5.03540 35061 ft 461 kts 118°
2026-05-07 15:32 50.29269 5.12556 35051 ft 461 kts 117°
2026-05-07 15:32 50.26465 5.21562 35055 ft 460 kts 117°
2026-05-07 15:33 50.23681 5.30497 35064 ft 460 kts 117°
2026-05-07 15:33 50.20864 5.39478 35065 ft 461 kts 118°
2026-05-07 15:34 50.18033 5.48465 35050 ft 462 kts 118°
2026-05-07 15:34 50.15197 5.57436 35059 ft 462 kts 117°
2026-05-07 15:35 50.12352 5.66408 35052 ft 462 kts 117°
2026-05-07 15:35 50.09518 5.75317 35053 ft 462 kts 118°
2026-05-07 15:36 50.06589 5.84217 35050 ft 461 kts 120°
2026-05-07 15:36 50.03386 5.92851 35040 ft 461 kts 122°
2026-05-07 15:37 50.00144 6.01371 35052 ft 461 kts 122°
2026-05-07 15:37 49.96902 6.09948 35040 ft 461 kts 122°
2026-05-07 15:38 49.93669 6.18548 35045 ft 461 kts 121°
2026-05-07 15:38 49.90435 6.27142 35042 ft 461 kts 122°
2026-05-07 15:39 49.87217 6.35670 35042 ft 461 kts 122°
2026-05-07 15:39 49.83969 6.44243 35035 ft 462 kts 121°
2026-05-07 15:40 49.80711 6.52815 35038 ft 462 kts 121°
2026-05-07 15:40 49.77439 6.61394 35004 ft 463 kts 121°
2026-05-07 15:41 49.74165 6.69951 35030 ft 463 kts 122°
2026-05-07 15:41 49.70900 6.78456 35023 ft 463 kts 121°
2026-05-07 15:42 49.67612 6.86992 35036 ft 463 kts 121°
2026-05-07 15:42 49.64316 6.95522 35034 ft 463 kts 121°
2026-05-07 15:43 49.61017 7.04032 35036 ft 462 kts 121°
2026-05-07 15:43 49.57713 7.12528 35038 ft 462 kts 121°
2026-05-07 15:44 49.54426 7.20955 35043 ft 462 kts 122°
2026-05-07 15:44 49.51113 7.29418 35026 ft 462 kts 122°
2026-05-07 15:45 49.47795 7.37868 35046 ft 461 kts 122°
2026-05-07 15:45 49.44470 7.46308 35045 ft 462 kts 122°
2026-05-07 15:46 49.39492 7.58894 35048 ft 462 kts 122°
2026-05-07 15:47 49.36147 7.67320 35049 ft 462 kts 122°
2026-05-07 15:47 49.32793 7.75740 35046 ft 463 kts 122°
2026-05-07 15:48 49.29430 7.84154 35049 ft 463 kts 122°
2026-05-07 15:48 49.26083 7.92505 35047 ft 463 kts 122°
2026-05-07 15:49 49.22704 8.00907 35039 ft 463 kts 123°
2026-05-07 15:49 49.19321 8.09293 35043 ft 464 kts 123°
2026-05-07 15:50 49.15929 8.17674 35042 ft 464 kts 123°
2026-05-07 15:50 49.12551 8.25997 35039 ft 464 kts 123°
2026-05-07 15:51 49.09143 8.34367 35036 ft 464 kts 123°
2026-05-07 15:51 49.07532 8.38314 35039 ft 464 kts 123°
2026-05-07 15:52 49.04124 8.46649 35040 ft 464 kts 123°
2026-05-07 15:52 49.00693 8.54985 35031 ft 464 kts 125°
2026-05-07 15:53 48.96411 8.62155 35026 ft 460 kts 143°
2026-05-07 15:53 48.91369 8.68144 35032 ft 460 kts 144°
2026-05-07 15:54 48.86316 8.74112 35032 ft 461 kts 144°
2026-05-07 15:54 48.81272 8.80135 35020 ft 462 kts 143°
2026-05-07 15:55 48.76269 8.86136 35021 ft 462 kts 143°
2026-05-07 15:55 48.71568 8.91769 35015 ft 462 kts 144°
2026-05-07 15:56 48.66520 8.97797 35020 ft 462 kts 144°
2026-05-07 15:56 48.61465 9.03817 35022 ft 463 kts 144°
2026-05-07 15:57 48.56433 9.09793 35043 ft 463 kts 144°
2026-05-07 15:57 48.51363 9.15799 35020 ft 463 kts 144°
2026-05-07 15:58 48.46288 9.21795 35012 ft 463 kts 144°
2026-05-07 15:58 48.41253 9.27728 35021 ft 463 kts 144°
2026-05-07 15:59 48.36205 9.33662 35013 ft 464 kts 144°
2026-05-07 15:59 48.31121 9.39624 35004 ft 463 kts 144°
2026-05-07 16:00 48.27728 9.43595 35010 ft 462 kts 144°
2026-05-07 16:00 48.22971 9.49221 35012 ft 461 kts 143°
2026-05-07 16:01 48.18013 9.55338 35034 ft 462 kts 143°
2026-05-07 16:01 48.13092 9.61435 35014 ft 462 kts 143°
2026-05-07 16:02 48.08125 9.67542 35022 ft 462 kts 143°
2026-05-07 16:02 48.03153 9.73621 35021 ft 462 kts 143°
2026-05-07 16:03 47.98173 9.79689 35018 ft 462 kts 143°
2026-05-07 16:03 47.93222 9.85707 35024 ft 462 kts 143°
2026-05-07 16:04 47.88230 9.91760 35026 ft 463 kts 143°
2026-05-07 16:04 47.83243 9.97792 35028 ft 463 kts 144°
2026-05-07 16:05 47.78217 10.03854 35014 ft 467 kts 144°
2026-05-07 16:05 47.73146 10.09956 35038 ft 470 kts 144°
2026-05-07 16:06 47.68043 10.16081 35024 ft 473 kts 144°
2026-05-07 16:06 47.62961 10.22168 35023 ft 473 kts 144°
2026-05-07 16:07 47.57843 10.28283 35016 ft 471 kts 144°
2026-05-07 16:07 47.52612 10.34056 35005 ft 467 kts 150°
2026-05-07 16:08 47.47204 10.39198 35019 ft 464 kts 151°
2026-05-07 16:08 47.41780 10.44348 35012 ft 463 kts 150°
2026-05-07 16:09 47.36408 10.49542 35016 ft 461 kts 150°
2026-05-07 16:09 47.31063 10.54721 35007 ft 459 kts 151°
2026-05-07 16:10 47.25765 10.59932 35012 ft 459 kts 149°
2026-05-07 16:10 47.20564 10.65423 35012 ft 461 kts 148°
2026-05-07 16:11 47.15392 10.70916 35004 ft 462 kts 148°
2026-05-07 16:11 47.10152 10.76415 34989 ft 464 kts 149°
2026-05-07 16:12 47.04885 10.81900 34990 ft 464 kts 149°
2026-05-07 16:12 46.99608 10.87380 34998 ft 466 kts 149°
2026-05-07 16:13 46.94367 10.92811 34994 ft 468 kts 149°
2026-05-07 16:13 46.89040 10.98320 35009 ft 469 kts 149°
2026-05-07 16:14 46.83705 11.03826 35036 ft 471 kts 149°
2026-05-07 16:14 46.78517 11.09789 35022 ft 478 kts 142°
2026-05-07 16:15 46.73686 11.16470 35009 ft 479 kts 141°
2026-05-07 16:15 46.68901 11.23144 35007 ft 479 kts 141°
2026-05-07 16:16 46.64069 11.29761 34955 ft 475 kts 141°
2026-05-07 16:16 46.59242 11.36291 34939 ft 472 kts 142°
2026-05-07 16:17 46.54453 11.42744 34930 ft 469 kts 142°
2026-05-07 16:17 46.49679 11.49159 34954 ft 466 kts 142°
2026-05-07 16:18 46.44946 11.55505 34949 ft 467 kts 142°
2026-05-07 16:18 46.40162 11.61904 34991 ft 469 kts 142°
2026-05-07 16:19 46.35356 11.68321 34965 ft 470 kts 142°
2026-05-07 16:19 46.30540 11.74734 34976 ft 472 kts 142°
2026-05-07 16:20 46.25723 11.81131 34970 ft 474 kts 142°
2026-05-07 16:20 46.20844 11.87592 34958 ft 476 kts 142°
2026-05-07 16:21 46.15952 11.94060 34969 ft 478 kts 142°
2026-05-07 16:21 46.11050 12.00522 34905 ft 477 kts 143°
2026-05-07 16:22 46.06205 12.06900 34965 ft 475 kts 143°
2026-05-07 16:22 46.01314 12.13315 34956 ft 476 kts 143°
2026-05-07 16:23 45.96430 12.19708 34969 ft 474 kts 143°
2026-05-07 16:23 45.91563 12.26062 34964 ft 472 kts 143°
2026-05-07 16:24 45.86990 12.32771 34974 ft 475 kts 136°
2026-05-07 16:24 45.82714 12.40022 34971 ft 476 kts 136°
2026-05-07 16:25 45.78448 12.47276 34979 ft 476 kts 136°
2026-05-07 16:25 45.74167 12.54424 34964 ft 476 kts 136°
2026-05-07 16:26 45.69838 12.61580 34959 ft 475 kts 137°
2026-05-07 16:26 45.65502 12.68720 34938 ft 475 kts 137°
2026-05-07 16:27 45.61169 12.75842 34957 ft 475 kts 137°
2026-05-07 16:27 45.56839 12.82946 35170 ft 472 kts 137°
2026-05-07 16:27 45.54717 12.86423 35425 ft 469 kts 137°
2026-05-07 16:28 45.52583 12.89916 35807 ft 464 kts 137°
2026-05-07 16:28 45.50474 12.93363 36147 ft 459 kts 137°
2026-05-07 16:28 45.48387 12.96770 36489 ft 453 kts 137°
2026-05-07 16:28 45.46327 13.00126 36856 ft 448 kts 137°
2026-05-07 16:29 45.44279 13.03456 36966 ft 449 kts 137°
2026-05-07 16:29 45.40124 13.10190 36956 ft 456 kts 137°
2026-05-07 16:30 45.35942 13.16965 36990 ft 462 kts 137°
2026-05-07 16:30 45.31675 13.23866 36992 ft 468 kts 137°
2026-05-07 16:31 45.27159 13.30528 36993 ft 467 kts 142°
2026-05-07 16:31 45.22468 13.36928 36989 ft 469 kts 143°
2026-05-07 16:32 45.17760 13.43335 36987 ft 470 kts 142°
2026-05-07 16:32 45.13096 13.49739 36986 ft 469 kts 142°
2026-05-07 16:33 45.08430 13.56169 36975 ft 467 kts 142°
2026-05-07 16:33 45.03811 13.62526 36989 ft 465 kts 142°
2026-05-07 16:34 44.99190 13.68869 37011 ft 462 kts 142°
2026-05-07 16:34 44.94617 13.75126 37016 ft 460 kts 142°
2026-05-07 16:35 44.90035 13.81381 37013 ft 457 kts 142°
2026-05-07 16:35 44.85464 13.87606 37022 ft 456 kts 142°
2026-05-07 16:36 44.80904 13.93800 37022 ft 455 kts 142°
2026-05-07 16:36 44.76368 13.99948 37026 ft 456 kts 142°
2026-05-07 16:37 44.71787 14.06142 37029 ft 457 kts 142°
2026-05-07 16:37 44.67191 14.12343 36992 ft 459 kts 142°
2026-05-07 16:38 44.62577 14.18555 37009 ft 460 kts 142°
2026-05-07 16:38 44.57979 14.24731 37015 ft 462 kts 142°
2026-05-07 16:39 44.53326 14.30966 37013 ft 463 kts 142°
2026-05-07 16:39 44.48657 14.37208 37011 ft 465 kts 142°
2026-05-07 16:40 44.43975 14.43455 37013 ft 465 kts 142°
2026-05-07 16:40 44.39289 14.49691 37012 ft 465 kts 142°
2026-05-07 16:41 44.34629 14.55879 37014 ft 465 kts 142°
2026-05-07 16:41 44.29936 14.62097 37019 ft 465 kts 142°
2026-05-07 16:42 44.25242 14.68300 37016 ft 465 kts 143°
2026-05-07 16:42 44.21340 14.73446 37011 ft 464 kts 143°
2026-05-07 16:43 44.15890 14.80617 37017 ft 463 kts 143°
2026-05-07 16:43 44.11199 14.86774 37016 ft 463 kts 143°
2026-05-07 16:44 44.06525 14.92894 37011 ft 463 kts 143°
2026-05-07 16:44 44.02646 14.97963 36997 ft 462 kts 143°
2026-05-07 16:45 43.97222 15.05034 37011 ft 463 kts 143°
2026-05-07 16:45 43.92507 15.11165 37036 ft 466 kts 143°
2026-05-07 16:46 43.87758 15.17324 37023 ft 469 kts 143°
2026-05-07 16:46 43.83789 15.22464 37031 ft 471 kts 143°
2026-05-07 16:47 43.78208 15.29675 37007 ft 473 kts 143°
2026-05-07 16:47 43.73387 15.35889 37028 ft 474 kts 143°
2026-05-07 16:48 43.69371 15.41056 37033 ft 474 kts 143°
2026-05-07 16:48 43.64536 15.47261 37031 ft 474 kts 143°
2026-05-07 16:49 43.59707 15.53446 37028 ft 473 kts 144°
2026-05-07 16:49 43.54887 15.59603 37027 ft 472 kts 144°
2026-05-07 16:50 43.50117 15.65684 37015 ft 470 kts 144°
2026-05-07 16:50 43.45318 15.71786 37028 ft 469 kts 144°
2026-05-07 16:51 43.40532 15.77858 37030 ft 468 kts 144°
2026-05-07 16:51 43.35735 15.83930 37028 ft 469 kts 144°
2026-05-07 16:52 43.30965 15.89955 37034 ft 469 kts 144°
2026-05-07 16:52 43.26154 15.96020 37028 ft 470 kts 144°
2026-05-07 16:53 43.21321 16.02100 37009 ft 472 kts 144°
2026-05-07 16:53 43.16448 16.08134 37021 ft 470 kts 149°
2026-05-07 16:54 43.11191 16.13368 37028 ft 467 kts 153°
2026-05-07 16:54 43.05858 16.18358 37007 ft 468 kts 154°
2026-05-07 16:55 43.00487 16.23430 37021 ft 470 kts 153°
2026-05-07 16:55 42.95116 16.28566 37023 ft 472 kts 153°
2026-05-07 16:56 42.89734 16.33729 37019 ft 474 kts 153°
2026-05-07 16:56 42.81672 16.41445 37006 ft 475 kts 154°
2026-05-07 16:57 42.76257 16.46608 37019 ft 476 kts 154°
2026-05-07 16:57 42.70826 16.51774 37026 ft 477 kts 154°
2026-05-07 16:58 42.65419 16.56907 37020 ft 478 kts 154°
2026-05-07 16:58 42.59959 16.62079 36982 ft 479 kts 155°
2026-05-07 16:59 42.54495 16.67244 37017 ft 480 kts 155°
2026-05-07 16:59 42.49011 16.72415 37008 ft 481 kts 155°
2026-05-07 17:00 42.43545 16.77559 37017 ft 482 kts 155°
2026-05-07 17:00 42.38025 16.82742 36997 ft 484 kts 155°
2026-05-07 17:01 42.32478 16.87939 37026 ft 486 kts 156°
2026-05-07 17:01 42.26899 16.93153 37033 ft 489 kts 156°
2026-05-07 17:02 42.21325 16.98353 37028 ft 492 kts 156°
2026-05-07 17:02 42.15681 17.03608 37028 ft 494 kts 156°
2026-05-07 17:03 42.10013 17.08875 37022 ft 495 kts 156°
2026-05-07 17:03 42.04331 17.14142 37015 ft 497 kts 156°
2026-05-07 17:04 41.98626 17.19421 37028 ft 498 kts 156°
2026-05-07 17:04 41.92936 17.24610 37021 ft 494 kts 160°
2026-05-07 17:05 41.89928 17.26686 37000 ft 479 kts 169°
2026-05-07 17:05 41.86880 17.28453 37021 ft 477 kts 169°
2026-05-07 17:05 41.80768 17.31904 37023 ft 476 kts 169°
2026-05-07 17:06 41.74680 17.35388 37018 ft 476 kts 169°
2026-05-07 17:06 41.68655 17.38884 37004 ft 474 kts 169°
2026-05-07 17:07 41.62617 17.42399 37016 ft 472 kts 169°
2026-05-07 17:07 41.56597 17.45891 37016 ft 471 kts 169°
2026-05-07 17:08 41.50585 17.49368 37030 ft 471 kts 169°
2026-05-07 17:08 41.44605 17.52819 37029 ft 472 kts 169°
2026-05-07 17:09 41.38575 17.56292 37032 ft 473 kts 169°
2026-05-07 17:09 41.32511 17.59777 36801 ft 479 kts 169°
2026-05-07 17:10 41.29442 17.61535 36335 ft 481 kts 169°
2026-05-07 17:10 41.26377 17.63300 35837 ft 478 kts 169°
2026-05-07 17:10 41.23345 17.65047 35461 ft 472 kts 169°
2026-05-07 17:10 41.20384 17.66746 35073 ft 468 kts 170°
2026-05-07 17:11 41.17422 17.68443 34862 ft 459 kts 170°
2026-05-07 17:11 41.14507 17.70112 34488 ft 455 kts 170°
2026-05-07 17:11 41.11611 17.71764 34139 ft 451 kts 170°
2026-05-07 17:11 41.08740 17.73398 33722 ft 447 kts 170°
2026-05-07 17:12 41.05892 17.75016 33300 ft 444 kts 169°
2026-05-07 17:12 41.03064 17.76621 32928 ft 440 kts 169°
2026-05-07 17:12 41.00263 17.78210 32535 ft 436 kts 168°
2026-05-07 17:12 40.97520 17.79768 32195 ft 431 kts 168°
2026-05-07 17:13 40.94801 17.81307 31841 ft 432 kts 167°
2026-05-07 17:13 40.92023 17.82872 31487 ft 436 kts 166°
2026-05-07 17:13 40.89240 17.84444 31108 ft 434 kts 166°
2026-05-07 17:13 40.86464 17.86015 30742 ft 432 kts 165°
2026-05-07 17:14 40.83714 17.87571 30380 ft 429 kts 165°
2026-05-07 17:14 40.80972 17.89121 29999 ft 427 kts 164°
2026-05-07 17:14 40.78250 17.90658 29559 ft 424 kts 164°
2026-05-07 17:14 40.75546 17.92184 29178 ft 420 kts 165°
2026-05-07 17:15 40.72905 17.93671 28795 ft 417 kts 164°
2026-05-07 17:15 40.70250 17.95164 28452 ft 413 kts 164°
2026-05-07 17:15 40.67615 17.96646 28117 ft 409 kts 164°
2026-05-07 17:15 40.65020 17.98104 27855 ft 404 kts 164°
2026-05-07 17:16 40.62502 17.99807 27356 ft 413 kts 152°
2026-05-07 17:16 40.60250 18.02173 27049 ft 416 kts 141°
2026-05-07 17:16 40.58349 18.05049 26799 ft 417 kts 131°
2026-05-07 17:16 40.56656 18.08125 26559 ft 413 kts 130°
2026-05-07 17:17 40.55007 18.11197 26315 ft 409 kts 129°
2026-05-07 17:17 40.53390 18.14215 26053 ft 411 kts 130°
2026-05-07 17:17 40.51726 18.17298 25825 ft 415 kts 130°
2026-05-07 17:17 40.50104 18.20280 25598 ft 414 kts 130°
2026-05-07 17:18 40.48432 18.23339 25311 ft 411 kts 130°
2026-05-07 17:18 40.46764 18.26375 24965 ft 409 kts 130°
2026-05-07 17:18 40.45104 18.29387 24615 ft 407 kts 130°
2026-05-07 17:18 40.43444 18.32392 24262 ft 405 kts 130°
2026-05-07 17:19 40.41792 18.35377 23886 ft 404 kts 130°
2026-05-07 17:19 40.40141 18.38359 23503 ft 403 kts 130°
2026-05-07 17:19 40.38519 18.41286 23082 ft 401 kts 130°
2026-05-07 17:19 40.36882 18.44236 22691 ft 399 kts 129°
2026-05-07 17:20 40.35256 18.47166 22320 ft 396 kts 129°
2026-05-07 17:20 40.33640 18.50075 21956 ft 393 kts 129°
2026-05-07 17:20 40.32036 18.52960 21597 ft 391 kts 129°
2026-05-07 17:20 40.30437 18.55831 21239 ft 388 kts 129°
2026-05-07 17:21 40.28854 18.58673 20878 ft 383 kts 129°
2026-05-07 17:21 40.27304 18.61455 20520 ft 373 kts 129°
2026-05-07 17:21 40.25793 18.64166 20177 ft 364 kts 129°
2026-05-07 17:21 40.24335 18.66776 19856 ft 356 kts 129°
2026-05-07 17:22 40.22890 18.69362 19524 ft 349 kts 130°
2026-05-07 17:22 40.21467 18.71905 19211 ft 343 kts 130°
2026-05-07 17:22 40.20058 18.74418 18908 ft 343 kts 130°
2026-05-07 17:22 40.18640 18.76941 18619 ft 352 kts 130°
2026-05-07 17:23 40.17191 18.79521 18240 ft 350 kts 130°
2026-05-07 17:23 40.15768 18.82058 17873 ft 342 kts 130°
2026-05-07 17:23 40.14379 18.84536 17539 ft 336 kts 130°
2026-05-07 17:23 40.13024 18.86948 17247 ft 330 kts 130°
2026-05-07 17:24 40.11659 18.89372 16949 ft 334 kts 130°
2026-05-07 17:24 40.10267 18.91838 16636 ft 337 kts 130°
2026-05-07 17:24 40.08891 18.94284 16307 ft 330 kts 131°
2026-05-07 17:24 40.07548 18.96669 16000 ft 322 kts 131°
2026-05-07 17:25 40.06227 18.99009 15708 ft 317 kts 131°
2026-05-07 17:25 40.04789 19.01146 15435 ft 314 kts 142°
2026-05-07 17:25 40.03131 19.03041 15221 ft 319 kts 144°
2026-05-07 17:25 40.01453 19.04889 14984 ft 320 kts 144°
2026-05-07 17:26 39.99762 19.06744 14729 ft 316 kts 144°
2026-05-07 17:26 39.98095 19.08583 14499 ft 313 kts 144°
2026-05-07 17:26 39.96445 19.10410 14260 ft 310 kts 144°
2026-05-07 17:26 39.94813 19.12226 14019 ft 305 kts 144°
2026-05-07 17:27 39.93225 19.13999 13790 ft 298 kts 144°
2026-05-07 17:27 39.91668 19.15739 13476 ft 294 kts 144°
2026-05-07 17:27 39.90112 19.17475 13188 ft 297 kts 144°
2026-05-07 17:27 39.88522 19.19246 12894 ft 303 kts 144°
2026-05-07 17:28 39.86955 19.20996 12570 ft 297 kts 144°
2026-05-07 17:28 39.85406 19.22730 12265 ft 291 kts 144°
2026-05-07 17:28 39.83885 19.24431 11977 ft 287 kts 143°
2026-05-07 17:28 39.82370 19.26122 11703 ft 289 kts 143°
2026-05-07 17:29 39.80820 19.27846 11419 ft 295 kts 143°
2026-05-07 17:29 39.79275 19.29569 11105 ft 290 kts 143°
2026-05-07 17:29 39.77762 19.31258 10803 ft 284 kts 143°
2026-05-07 17:29 39.76272 19.32919 10520 ft 281 kts 143°
2026-05-07 17:30 39.74794 19.34564 10330 ft 279 kts 143°
2026-05-07 17:30 39.73314 19.36210 10218 ft 279 kts 143°
2026-05-07 17:30 39.71888 19.37797 10078 ft 268 kts 143°
2026-05-07 17:30 39.70496 19.39346 9843 ft 262 kts 143°
2026-05-07 17:31 39.69116 19.40879 9586 ft 260 kts 143°
2026-05-07 17:31 39.67749 19.42396 9353 ft 259 kts 143°
2026-05-07 17:31 39.66374 19.43919 9090 ft 261 kts 143°
2026-05-07 17:31 39.65003 19.45439 8822 ft 257 kts 143°
2026-05-07 17:32 39.63662 19.46927 8568 ft 250 kts 143°
2026-05-07 17:32 39.62342 19.48389 8325 ft 249 kts 143°
2026-05-07 17:32 39.61019 19.49853 8085 ft 252 kts 142°
2026-05-07 17:32 39.59691 19.51320 7841 ft 255 kts 142°
2026-05-07 17:33 39.58352 19.52801 7578 ft 250 kts 142°
2026-05-07 17:33 39.57043 19.54250 7327 ft 245 kts 142°
2026-05-07 17:33 39.55748 19.55681 7089 ft 244 kts 142°
2026-05-07 17:33 39.54452 19.57112 6860 ft 246 kts 142°
2026-05-07 17:34 39.53138 19.58561 6619 ft 249 kts 142°
2026-05-07 17:34 39.51833 19.60002 6350 ft 244 kts 141°
2026-05-07 17:34 39.50558 19.61409 6068 ft 239 kts 141°
2026-05-07 17:34 39.49307 19.62788 5815 ft 240 kts 141°
2026-05-07 17:35 39.48031 19.64193 5570 ft 241 kts 141°
2026-05-07 17:35 39.46753 19.65601 5320 ft 241 kts 141°
2026-05-07 17:35 39.45495 19.66987 5075 ft 234 kts 141°
2026-05-07 17:35 39.44271 19.68354 4813 ft 233 kts 136°
2026-05-07 17:36 39.43486 19.70212 4465 ft 239 kts 108°
2026-05-07 17:36 39.43107 19.72286 4201 ft 237 kts 108°
2026-05-07 17:36 39.42706 19.74334 3946 ft 239 kts 108°
2026-05-07 17:36 39.42283 19.76417 3689 ft 241 kts 109°
2026-05-07 17:37 39.41847 19.78505 3419 ft 238 kts 109°
2026-05-07 17:37 39.41416 19.80539 3241 ft 230 kts 109°
2026-05-07 17:37 39.40995 19.82505 3127 ft 225 kts 109°
2026-05-07 17:37 39.40578 19.84439 3027 ft 225 kts 109°
2026-05-07 17:38 39.40156 19.86396 2932 ft 224 kts 108°
2026-05-07 17:38 39.40113 19.88388 2891 ft 224 kts 79°
2026-05-07 17:38 39.40554 19.90291 2887 ft 218 kts 78°
2026-05-07 17:38 39.40972 19.92125 2897 ft 215 kts 78°
2026-05-07 17:39 39.41389 19.93964 2908 ft 219 kts 78°
2026-05-07 17:39 39.41958 19.95807 2878 ft 228 kts 56°
2026-05-07 17:39 39.43236 19.96970 2911 ft 226 kts 18°
2026-05-07 17:39 39.44767 19.96933 2910 ft 219 kts 346°
2026-05-07 17:40 39.46219 19.96382 2897 ft 217 kts 345°
2026-05-07 17:40 39.47648 19.95832 2632 ft 219 kts 344°
2026-05-07 17:40 39.49168 19.95252 2108 ft 230 kts 344°
2026-05-07 17:40 39.50675 19.94683 1782 ft 226 kts 344°
2026-05-07 17:41 39.52135 19.94076 1479 ft 216 kts 340°
2026-05-07 17:41 39.53511 19.93353 1301 ft 210 kts 337°
2026-05-07 17:41 39.54847 19.92663 1016 ft 202 kts 343°
2026-05-07 17:41 39.56156 19.92190 811 ft 187 kts 347°
2026-05-07 17:42 39.57394 19.91856 541 ft 176 kts 352°
2026-05-07 17:42 39.58558 19.91623 264 ft 167 kts 351°
2026-05-07 17:42 39.59678 19.91343 33 ft 151 kts 350°
2026-05-07 17:42 39.60626 19.91099 99 ft 140 kts 356°
2026-05-07 17:43 39.61657 19.90967 562 ft 166 kts
2026-05-07 17:43 39.62794 19.91683 842 ft 205 kts 53°
2026-05-07 17:43 39.63222 19.93458 1226 ft 216 kts 92°
2026-05-07 17:43 39.62920 19.95407 1384 ft 230 kts 118°
2026-05-07 17:44 39.61867 19.96964 1361 ft 228 kts 148°
2026-05-07 17:44 39.60493 19.97720 1461 ft 200 kts 165°
2026-05-07 17:44 39.59188 19.98054 1420 ft 186 kts 180°
2026-05-07 17:44 39.57945 19.97669 963 ft 193 kts 203°
2026-05-07 17:45 39.56820 19.96772 697 ft 188 kts 223°
2026-05-07 17:45 39.56240 19.95401 614 ft 167 kts 263°
2026-05-07 17:45 39.56290 19.93963 506 ft 154 kts 294°
2026-05-07 17:45 39.56876 19.92935 419 ft 137 kts 324°
2026-05-07 17:46 39.57648 19.92207 364 ft 143 kts 335°
2026-05-07 17:46 39.58556 19.91658 253 ft 142 kts 348°
2026-05-07 17:46 39.59500 19.91388 39 ft 133 kts 354°
2026-05-07 17:46 39.60285 19.91191 20 ft 88 kts 349°
2026-05-07 17:47 39.60675 19.91087 19 ft 31 kts 348°
2026-05-07 17:47 39.60844 19.91044 19 ft 19 kts 349°
2026-05-07 17:47 39.60976 19.91011 20 ft 19 kts
2026-05-07 17:47 39.61053 19.91110 18 ft 14 kts 122°
2026-05-07 17:48 39.60966 19.91147 19 ft 13 kts 168°
2026-05-07 17:48 39.60878 19.91170 17 ft 13 kts 168°
2026-05-07 17:48 39.60793 19.91193 17 ft 12 kts 167°
2026-05-07 17:48 39.60709 19.91214 17 ft 12 kts 170°
2026-05-07 17:49 39.60651 19.91265 17 ft 12 kts 77°
2026-05-07 17:49 39.60663 19.91329 17 ft 4 kts 82°
2026-05-07 17:49 39.60667 19.91358 17 ft 2 kts 79°
2026-05-07 17:49 39.60667 19.91359 17 ft 0 kts 79°